Location: Casteau
(50.5142°N, 4.0161°E)
Time: 21:01:29
(UTC+00:00)

Tiros 1 - Pass Details

Date: 09 August 2021
Orbit: 630 x 663 km, 48.4° (Epoch: 28 September)

Event Time Altitude Azimuth Distance (km) Brightness Sun altitude
Rises 18:05:23 0° 272° (W) 2,991 12.6 9.5°
Reaches altitude 10° 18:07:45 10° 270° (W) 2,075 11.8 9.1°
Maximum altitude 18:12:30 65° 189° (S) 723 7.6 8.4°
Drops below altitude 10° 18:17:12 10° 108° (ESE) 2,055 9.1 7.7°
Sets 18:19:32 0° 105° (ESE) 2,959 9.8 7.3°
